Regional Weather Roundup
Issued by NWS

Home | Current Version | Previous Version | Text Only | Print | Product List | Glossary Off
Versions: 1 2 3 4 5 6 7 8 9 10 11 12 13 14 15 16 17 18 19 20 21 22 23 24 25 26 27 28 29 30 31 32 33 34 35 36 37 38 39 40 41 42 43 44 45 46 47 48 49 50

000
ASUS43 KDTX 310801
RWRMI
MICHIGAN HOURLY REGIONAL WEATHER ROUNDUP
NATIONAL WEATHER SERVICE DETROIT/PONTIAC MI
400 AM EDT SUN AUG 31 2014

NOTE: "FAIR" INDICATES FEW OR NO CLOUDS BELOW 12,000 FEET WITH NO
SIGNIFICANT WEATHER AND/OR OBSTRUCTION TO VISIBILITY.

MIZ047>049-052>055-059>063-066>070-074>076-081>083-310900-
SOUTHEAST LOWER MICHIGAN

CITY           SKY/WX    TMP DP  RH WIND       PRES   REMARKS
ADRIAN         CLOUDY    70  67  90 SW6       29.95F
ALMA           MOCLDY    67  65  93 SW3       29.91S
BAD AXE        MOCLDY    69  69  99 SW9       29.89R
CARO           MOCLDY    69  67  94 SW9       29.89F
DETROIT CITY   CLOUDY    76  63  64 SW9       29.92S
DETROIT        LGT RAIN  72  64  76 SW12      29.94S
FLINT          CLOUDY    71  65  81 SW5       29.92S
GROSSE ILE     CLOUDY    73  70  88 SW6       29.93S
HILLSDALE      CLOUDY    69  69 100 CALM      29.96F
HOWELL         MOCLDY    67  66  97 SW5       29.93F

CITY           SKY/WX    TMP DP  RH WIND       PRES   REMARKS
JACKSON        CLOUDY    68  66  93 SW5       29.94F
LAMBERTVILLE   CLOUDY    73  68  83 SW6       29.95F
LANSING        MOCLDY    68  66  93 SW7       29.93S
LAPEER         FAIR      70  66  88 W8        29.91F
MASON          MOCLDY    67  66  95 SW5       29.93F
MONROE         HVY RAIN  73  70  88 W8        29.93F
MT. CLEMENS    CLOUDY    74  64  71 SW8       29.90F
PONTIAC        LGT RAIN  68  65  90 SW6       29.93S
PORT HOPE        N/A     70  66  87 SW6       29.85S
PORT HURON     CLOUDY    72  70  94 SW3       29.90F
TRI CITIES     CLOUDY    70  67  90 SW7       29.91S
TROY           CLOUDY    73  65  75 SW7       29.94S
SAGINAW HB     MOCLDY    70  70 100 W5        29.89F
$$
MIZ043>046-050>051-056>058-064>065-071>073-077>080-310900-
SOUTHWEST LOWER MICHIGAN

CITY           SKY/WX    TMP DP  RH WIND       PRES   REMARKS
BATTLE CREEK   CLOUDY    69  67  93 S6        29.94S
BENTON HARBOR  CLOUDY    68  67  96 S3        29.93R
BIG RAPIDS     CLOUDY    67  66  96 CALM      29.91S
COLDWATER      CLOUDY    70  69  96 CALM      29.94F
FREMONT        FOG       63  62  97 CALM      29.91F VSB 3/4
HOLLAND        MOCLDY    68  66  93 CALM      29.92S
GRAND RAPIDS   MOCLDY    70  70 100 SW5       29.92S
IONIA          FAIR      69  68  97 S6        29.92S
KALAMAZOO      CLOUDY    70  67  90 S3        29.94S FOG
LUDINGTON      CLOUDY    63  62  96 CALM      29.91S
MARSHALL       CLOUDY    68  67  98 CALM      29.94S
MOUNT PLEASANT MOCLDY    67  65  93 CALM      29.90S
MUSKEGON       PTCLDY    66  63  90 SE6       29.91S
SOUTH HAVEN    CLOUDY    69  68  96 CALM      29.92S
$$
MIZ016>042-310900-
NORTHERN LOWER MICHIGAN

CITY           SKY/WX    TMP DP  RH WIND       PRES   REMARKS
ALPENA         LGT RAIN  66  63  90 SW6       29.83R
BEAVER ISLAND  CLOUDY    61  60  97 W7        29.86R
BELLAIRE       RAIN      64  61  91 SW3       29.87S
CADILLAC       CLOUDY    63  63 100 W6        29.91S FOG
CHARLEVOIX     RAIN      64  64 100 W6        29.89S
FRANKFORT      CLOUDY    65  60  81 W6        29.90R
GAYLORD        FOG       61  61 100 W9        29.88S VSB 1/2
GRAYLING       CLOUDY    64  64 100 W8        29.89R FOG
HARBOR SPRINGS DRIZZLE   63  62  96 W6        29.85S
HOUGHTON LAKE  CLOUDY    65  62  90 W9        29.90R
MANISTEE       CLOUDY    64  61  88 W5        29.91S
OSCODA         DRIZZLE   67  66  96 W7        29.84S
PELLSTON       LGT RAIN  62  61  96 W7        29.85R
ROGERS CITY    CLOUDY    64  63  94 SW10G16   29.82S
TRAVERSE CITY  CLOUDY    66  60  81 W6        29.87R
$$
MIZ007>008-015-310900-
EASTERN UPPER MICHIGAN

CITY           SKY/WX    TMP DP  RH WIND       PRES   REMARKS
KINROSS        CLOUDY    63  61  94 W9        29.81R
MACKINAC ISLAN CLOUDY    61  61 100 W14       29.82R
NEWBERRY       CLOUDY    57  57  99 NW3       29.84R
S. S. MARIE    CLOUDY    63  62  97 CALM      29.80R
$$
MIZ004>006-011>014-085-310900-
CENTRAL UPPER MICHIGAN

CITY           SKY/WX    TMP DP  RH WIND       PRES   REMARKS
MANISTIQUE     CLOUDY    58  58  99 N7        29.85S
ESCANABA       CLOUDY    59  55  88 NW3       29.88R
MENOMINEE      MOCLDY    57  55  94 SW5       29.89R
SAWYER-GWINN   CLOUDY    58  56  96 N5        29.89S
$$
MIZ001>003-009>011-084-310900-
WESTERN UPPER MICHIGAN

CITY           SKY/WX    TMP DP  RH WIND       PRES   REMARKS
IRON MOUNTAIN  MOCLDY    56  54  93 N3        29.89S
HOUGHTON       CLEAR     54  52  93 NW5       29.90S
COPPER HARBOR    N/A     54  52  93 CALM      29.89F
IRONWOOD       CLEAR     52  50  93 W3        29.91R
$$

ABBREVIATIONS USED IN REMARKS
   TC - TEMPERATURE IN CELSIUS
  WCI - WIND CHILL INDEX
   HX - HEAT INDEX
  VSB - VISIBILITY



USA.gov is the U.S. government's official web portal to all federal, state and local government web resources and services.